Weather in Hervey Bay

Australia     25°17′24″S   152°51′16″E
temp.,
°C
wind,
m/s
gust,
m/s
humid.,
%
clouds,
%
prec.,
mm/h
press.,
hPa
HPBL,
m
28 october, thu
thu2801:00+24n667949 0.0 1016833
04:00+24n567492 0.1 1016940
07:00+24n667519 0.0 1017846
10:00+24n67760 0.0 1017743
13:00+24n78760 0.0 1015564
16:00+24n78760 0.0 1013554
19:00+24n79810 0.0 1014492
22:00+24n810820 0.0 1015662
29 october, fri
fri2901:00+24nnw810821 0.0 1014845
04:00+24nnw810810 0.0 1014900
07:00+24nnw910795 0.0 1015989
10:00+25n89755 0.0 1016713
13:00+24n101079100 0.0 1014397
16:00+24n9108075 0.0 1013456
19:00+24n8982100 0.0 1014545
22:00+24n81083100 0.0 1015598
30 october, sat
sat3001:00+24nnw7982100 0.0 1014724
04:00+24wnw578289 0.0 1015717
07:00+24nnw798161 0.0 1015697
10:00+25n887994 0.0 1016562
13:00+24n10108266 0.0 1013343
16:00+25n911821 0.0 1012430
19:00+25nnw71182100 0.0 1014489
22:00+25n5883100 0.3 1015353
31 october, sun
sun3101:00+24nw458499 0.1 1014401
04:00+22sse81090100 0.3 1016528
07:00+23sse91286100 0.3 1019826
10:00+24se11127493 0.4 10191113
13:00+24se11116891 0.0 10181168
16:00+23se11127350 0.1 10191210
19:00+22se121369100 0.1 10211287
22:00+22ese1112695 0.1 10231311
1 november, mon
mon101:00+21ese101169100 0.1 10221447
04:00+21se8964100 0.2 10221581
07:00+22se995990 0.0 10241566
10:00+22ese895530 0.0 10241545
13:00+23ese99555 0.0 10221516
16:00+22se99566 0.0 10221583
19:00+22se896184 0.0 10231542
22:00+22ese895937 0.0 10231435